Regional Weather Roundup
Issued by NWS Lake Charles, LA

Current Version | Previous Version | Text Only | Print | Product List | Glossary On
Versions: 1 2 3 4 5 6 7 8 9 10 11 12 13 14 15 16 17 18 19 20 21 22 23 24 25 26 27
000
ASUS44 KLCH 260910
RWRLCH
RWRLCH
REGIONAL WEATHER ROUNDUP
NATIONAL WEATHER SERVICE LAKE CHARLES LA
400 AM CDT SUN OCT 26 2014

Note: "fair" indicates few or no clouds below 12,000 feet with no
significant weather and/or obstructions to visibility.


ACROSS SOUTHEAST TEXAS

CITY           SKY/WX    TMP DP  RH WIND       PRES   REMARKS
BEAUMONT       CLEAR     55  54  96 CALM      30.05S FOG
BEAUMONT CITY    N/A     53  53 100 CALM      30.06S FOG
ORANGE         SUNNY    N/A N/A N/A CALM      30.07F FOG
JASPER         CLEAR     51  51  98 CALM      30.08F FOG
$$

ACROSS CENTRAL LOUISIANA

CITY           SKY/WX    TMP DP  RH WIND       PRES   REMARKS
LEESVILLE      CLEAR     58  55  90 S1        30.06S
FULLERTON        N/A     56  52  86 CALM      30.04S
ALEXANDRIA INT CLEAR     56  55  97 CALM      30.03F
ESLER FIELD    CLEAR     53  52  96 W3        30.05S
DERIDDER         N/A     55  53  93 CALM      30.08S
OAKDALE        SUNNY     48  47  96 CALM      30.06S
OPELOUSAS        N/A    N/A N/A N/A CALM      30.05F
$$

ACROSS SOUTHWEST AND SOUTH CENTRAL LOUISIANA

CITY           SKY/WX    TMP DP  RH WIND       PRES   REMARKS
SULPHUR        FOG       54  54 100 CALM      30.06S VSB 1/4
LAKE CHARLES   CLEAR     55  54  96 CALM      30.06S
CHENNAULT INT  CLEAR     54  54  98 CALM      30.06F FOG
CAMERON PHI      N/A     63  63 100 N3        30.08S
DEQUINCY         N/A     51  50  95 CALM      30.06S
JENNINGS         N/A     54  54  99 CALM      30.06S
LAFAYETTE      CLEAR     56  56 100 CALM      30.06S FOG
NEW IBERIA     CLEAR     53  51  93 CALM      30.06S
ABBEVILLE      FOG       53  53 100 CALM      30.05F VSB 1/2
PATTERSON        N/A     55  55 100 CALM      30.08S VSB 3/4
SALT POINT       N/A     65  62  90 CALM      30.05S
$$

SELECTED SITES ACROSS THE REGION

CITY           SKY/WX    TMP DP  RH WIND       PRES   REMARKS
HOUSTON BUSH   CLEAR     58  57  97 CALM      30.05F
HOUSTON HOBBY  CLEAR     59  58  96 CALM      30.05F
GALVESTON      CLEAR     69  59  70 S6        30.06F
COLLEGE STAT   CLEAR     62  58  86 S3        30.06S
CONROE         CLEAR     54  53  97 CALM      30.06F
HUNTSVILLE     CLEAR     63  58  83 SW5       30.05F
LUFKIN         CLEAR     59  55  87 E3        30.05F
SHREVEPORT     CLEAR     63  60  90 CALM      30.03S
MONROE         CLEAR     58  57  97 CALM      30.04F
NATCHEZ MS     CLEAR     55  52  88 CALM      30.05F
BATON ROUGE    CLEAR     55  53  93 CALM      30.05S
N.O. INTL ARPT CLEAR     62  58  86 CALM      30.04F
SLIDELL        CLEAR     55  52  89 CALM      30.03F
$$

MARINE REPORTS

STATION/POSITION TIME  TEMP    WIND        PRES    VSBY  WAVE
                       AIR SEA DIR/SP/G                  HT/PER
                 (UTC) (F)     (DEG/KT/KT) (MB)    (MI)  (FT/S)
BUOY 30 S HIGH I 0900   74 77  200/  8/ 10 1017.3F         1/ 7
SEA RIM ST PARK  0900   65     300/  3/  3 1018.2F
PORT ARTHUR      0900      73   CALM  /  2 1017.6F
SABINE PASS N    0900   66 73  300/  4/  5 1017.7S
TEXAS POINT      0900   67 73  250/  4/  4 1017.7F
CALCASIEU PASS   0900   66 73  360/  4/  4   N/A
LK CHARLES BEACH 0900   64 75              1017.7F
MARSH ISLAND     NOT AVBL
FRESH WATER LOCK 0900   64 72  340/  4/  5 1017.6S
AMERADA PASS     0900   67 69  310/  1/  2 1017.5S
$$



USA.gov is the U.S. government's official web portal to all federal, state and local government web resources and services.